Time,TemperatureF,DewpointF,PressureIn,WindDirection,WindDirectionDegrees,WindSpeedMPH,WindSpeedGustMPH,Humidity,HourlyPrecipIn,Conditions,Clouds,dailyrainin,SoftwareType,DateUTC
2013-06-08 00:11:00,65.7,59.1,29.38,NW,315,0.7,2.2,74,0.00,,,0.00,fowsr,2013-06-07 22:11:00,
2013-06-08 00:41:00,64.8,59.0,29.38,East,90,0.0,0.0,77,0.00,,,0.00,fowsr,2013-06-07 22:41:00,
2013-06-08 01:11:00,64.2,59.1,29.37,NE,45,0.7,2.2,79,0.00,,,0.00,fowsr,2013-06-07 23:11:00,
2013-06-08 01:41:00,64.6,58.6,29.36,NW,315,0.0,0.7,76,0.00,,,0.00,fowsr,2013-06-07 23:41:00,
2013-06-08 02:11:00,65.1,58.8,29.35,NW,315,1.6,3.1,75,0.00,,,0.00,fowsr,2013-06-08 00:11:00,
2013-06-08 03:11:00,65.5,59.2,29.36,North,0,2.2,3.1,75,0.00,,,0.00,fowsr,2013-06-08 01:11:00,
2013-06-08 03:41:00,66.6,59.0,29.36,NW,315,2.2,5.4,71,0.00,,,0.00,fowsr,2013-06-08 01:41:00,
2013-06-08 04:11:00,66.0,58.8,29.35,NE,45,3.1,5.4,72,0.00,,,0.00,fowsr,2013-06-08 02:11:00,
2013-06-08 04:41:00,65.3,58.4,29.36,NW,315,2.2,5.4,73,0.00,,,0.00,fowsr,2013-06-08 02:41:00,
2013-06-08 05:11:00,66.2,58.4,29.36,ENE,67,2.2,5.4,70,0.00,,,0.00,fowsr,2013-06-08 03:11:00,
2013-06-08 05:41:00,67.8,58.7,29.36,North,0,3.8,7.6,66,0.00,,,0.00,fowsr,2013-06-08 03:41:00,
2013-06-08 06:11:00,69.4,58.8,29.36,NE,45,3.8,6.9,62,0.00,,,0.00,fowsr,2013-06-08 04:11:00,
2013-06-08 06:41:00,70.9,59.5,29.36,NE,45,3.1,5.4,60,0.00,,,0.00,fowsr,2013-06-08 04:41:00,
2013-06-08 07:11:00,72.7,59.6,29.36,North,0,2.2,3.1,56,0.00,,,0.00,fowsr,2013-06-08 05:11:00,
2013-06-08 07:41:00,73.8,59.0,29.37,East,90,5.4,6.9,52,0.00,,,0.00,fowsr,2013-06-08 05:41:00,
2013-06-08 08:11:00,76.1,59.9,29.38,East,90,2.2,3.8,49,0.00,,,0.00,fowsr,2013-06-08 06:11:00,
2013-06-08 08:41:00,78.6,59.3,29.37,North,0,3.1,3.8,43,0.00,,,0.00,fowsr,2013-06-08 06:41:00,
2013-06-08 09:11:00,79.3,57.8,29.37,SE,135,2.2,3.1,39,0.00,,,0.00,fowsr,2013-06-08 07:11:00,
2013-06-08 09:41:00,80.1,58.5,29.37,West,270,1.6,2.2,39,0.00,,,0.00,fowsr,2013-06-08 07:41:00,
2013-06-08 10:11:00,80.8,59.1,29.38,NE,45,2.2,4.5,39,0.00,,,0.00,fowsr,2013-06-08 08:11:00,
2013-06-08 10:41:00,81.0,58.7,29.37,West,270,3.8,5.4,38,0.00,,,0.00,fowsr,2013-06-08 08:41:00,
2013-06-08 11:11:00,81.7,59.3,29.36,South,180,3.1,6.0,38,0.00,,,0.00,fowsr,2013-06-08 09:11:00,
2013-06-08 11:41:00,83.1,59.4,29.36,South,180,1.6,3.1,36,0.00,,,0.00,fowsr,2013-06-08 09:41:00,
2013-06-08 12:11:00,84.0,57.6,29.35,NE,45,3.1,5.4,32,0.00,,,0.00,fowsr,2013-06-08 10:11:00,
2013-06-08 12:41:00,86.0,57.2,29.34,North,0,3.8,6.0,29,0.00,,,0.00,fowsr,2013-06-08 10:41:00,
2013-06-08 13:11:00,87.3,58.3,29.32,NW,315,6.0,9.2,29,0.00,,,0.00,fowsr,2013-06-08 11:11:00,
2013-06-08 13:41:00,87.1,56.6,29.32,South,180,3.1,3.8,27,0.00,,,0.00,fowsr,2013-06-08 11:41:00,
2013-06-08 14:11:00,88.3,59.2,29.31,East,90,2.2,3.8,29,0.00,,,0.00,fowsr,2013-06-08 12:11:00,
2013-06-08 14:41:00,82.6,61.2,29.31,West,270,2.2,3.8,40,0.00,,,0.00,fowsr,2013-06-08 12:41:00,
2013-06-08 15:11:00,80.1,59.5,29.30,North,0,1.6,3.1,41,0.00,,,0.00,fowsr,2013-06-08 13:11:00,
2013-06-08 15:41:00,68.4,60.1,29.30,SW,225,7.6,9.2,69,0.24,,,0.24,fowsr,2013-06-08 13:41:00,